Dr. Bill's Marine Weather

Coastal Marine Forecast

       Alabama   Florida   Louisiana   Mississippi

Printer Friendly AL  FL  LA  MS

Data Buoys:   Western Gulf of Mexico    Eastern Gulf of Mexico
**********************************************************************
  Alabama
1100 PM CDT TUE JUL 29 2014

ALZ051>064-300500-
SOUTHWEST ALABAMA
  
CITY           SKY/WX    TMP DP  RH WIND       PRES   REMARKS
MOBILE         PTCLDY    77  67  71 N9        30.04R                  
BROOKLEY FIELD MOCLDY    80  67  64 N8        30.04R                  
EVERGREEN      CLOUDY    77  60  55 N5        30.05R                  
**********************************************************************
  Florida
1200 AM EDT WED JUL 30 2014

FLZ001>010-012>015-112-114-115-300500-
PANHANDLE FLORIDA
  
CITY           SKY/WX    TMP DP  RH WIND       PRES   REMARKS
PENSACOLA      CLOUDY    78  65  63 N5        30.02R                  
PENSACOLA NAS  PTCLDY    75  67  76 N5        30.01R                  
MILTON NAS     MOCLDY    77  63  61 N3        30.02R                  
CRESTVIEW      CLOUDY    76  66  71 CALM      30.04R                  
DUKE FIELD     MOCLDY    75  69  81 N3        30.02R                  
VALPARAISO     MOCLDY    78  65  64 N3        30.02R                  
MARY ESTHER    CLOUDY    76  64  65 N3        30.01R                  
TRI COUNTY     FAIR      70  69  97 CALM      30.02R                  
PANAMA CITY    FAIR      72  67  84 CALM      30.00R                  
TYNDALL AFB    CLEAR     74  67  77 N1        30.01R                  
APALACHICOLA   CLEAR     70  67  90 NW3       29.99S                  

STATION/POSITION SKY/WX   TEMP    WIND        PRES    WAVE   SWELL
                          AIR SEA DIR/SP/G            HT/PER HT/PER
                          (F)     (DEG/KT/KT) (MB)    (FT/S) (FT/S)
30.1N   87.6W              84 83   10/  8/ 10 1016.3R   1/ 5
29.2N   88.2W              83 86  320/  8/ 10 1016.9R
28.8N   86.0W              84 85  340/  8/ 10 1015.7    3/ 4   2/ 6
PANAMA CITY BEAC           78 80  350/  4/  5 1016.0R
CAPE SAN BLAS    NOT AVBL
TOWER C                    83     360/ 10/ 11 1015.3R
28.5N   84.5W              84 85  320/ 12/ 14 1015.3R   3/ 6   2/ 6

**********************************************************************
  Louisiana
1100 PM CDT TUE JUL 29 2014

LAZ040-048-061>063-065-066-069-300500-
SOUTHEAST LOUISIANA
  
CITY           SKY/WX    TMP DP  RH WIND       PRES   REMARKS
N.O. AUDUBON     N/A     81  67  61 MISG        N/A                   
N.O. INTL ARPT PTCLDY    81  64  56 N5        30.04R                  
N.O. LAKEFRONT CLEAR     84  65  52 N9        30.04R                  
N.O. DOWNTOWN* FAIR      84  63  48 N3        30.04R                  
SLIDELL        PTCLDY    74  68  81 NW3       30.04R                  
BATON ROUGE    CLEAR     75  68  78 CALM      30.05R                  
BOOTHVILLE     CLEAR     78  70  76 W6        30.05R                  
BELLE CHASSE   MOCLDY    73  68  84 S3        30.03R                  
BOGALUSA*      FAIR      74  67  78 CALM      30.06R                  
GALLIANO*      NOT AVBL                                               
NEW ROADS*     FAIR      74  69  84 N5        30.05R                  
GONZALES*      FAIR      72  72  99 CALM      30.04R                  
HAMMOND*       CLEAR     77  66  69 N5        30.06R                  
HOUMA*         CLEAR     73  67  82 CALM      30.04S                  
PORT FOURCHON* CLEAR     82  70  65 N5        30.05S                  

**********************************************************************
  Mississippi
1100 PM CDT TUE JUL 29 2014

MSZ080>082-300500-
COASTAL MISSISSIPPI
  
CITY           SKY/WX    TMP DP  RH WIND       PRES   REMARKS
BILOXI         CLEAR     79  67  67 VRB2      30.02R                  
PASCAGOULA     CLOUDY    75  71  87 CALM      30.02R                  
GULFPORT       MOCLDY    82  66  58 N6        30.02R                  
About Us | Coastal Marine Forecast | Offshore Marine Forecast | Marine Weather Discussion
Gulf Coast Tides | Exxon Mobil Platform 112B | Hourly Weather Observations | Weather Radar
Severe Weather Potential | Sea Surface Temperatures | Solar/Lunar Data | Hurricane Advisories | Home
     
USA Logo Dr. Bill's Marine Weather
Last date changed: February 4, 2005 12:04 PM
www.gulfmarineweather.com/hourlyweatherobservations.shtml
Contact Us